Location: Bremen
(53.0793°N, 8.8017°E)
Time: 11:57:43
(UTC+02:00)

Vanguard 1 Rocket - Visible Passes

Search period start: 04 October 2022 00:00
Search period end: 14 October 2022 00:00
Orbit: 650 x 4225 km, 34.3° (Epoch: 03 October)

Date Brightness Start Highest point End Pass type
(mag) Time Alt. Az. Time Alt. Az. Time Alt. Az.
04 Oct 10.4 19:32:53 10° SSW 19:48:59 26° SSE 19:59:44 11° ESE visible
04 Oct 9.8 22:00:18 10° SW 22:15:37 32° S 22:17:00 32° S visible
05 Oct 10.7 00:30:52 10° WSW 00:34:16 16° WSW 00:34:16 16° WSW visible
05 Oct 10.0 20:46:12 10° SW 21:03:27 33° S 21:09:38 24° SE visible
05 Oct 10.1 23:16:05 10° WSW 23:26:54 28° SSW 23:26:54 28° SSW visible
06 Oct 10.4 19:32:47 10° SSW 19:50:53 30° SSE 20:02:15 12° ESE visible
06 Oct 9.8 22:01:22 10° WSW 22:17:41 35° S 22:19:30 34° S visible
07 Oct 10.7 00:32:45 10° WSW 00:36:46 16° WSW 00:36:46 16° WSW visible
07 Oct 10.0 20:46:54 10° SW 21:05:27 36° S 21:12:06 25° SE visible
07 Oct 10.2 23:17:36 10° WSW 23:29:21 29° SW 23:29:21 29° SW visible
08 Oct 10.4 19:33:03 10° SW 19:52:45 34° SSE 20:04:39 13° ESE visible
08 Oct 9.9 22:02:35 10° WSW 22:19:41 36° S 22:21:55 34° S visible
09 Oct 10.7 00:34:45 10° WSW 00:39:10 16° WSW 00:39:10 16° WSW visible
09 Oct 10.0 20:47:49 10° WSW 21:07:23 38° S 21:14:27 26° SE visible
09 Oct 10.2 23:19:12 10° WSW 23:31:43 29° SW 23:31:43 29° SW visible
10 Oct 10.4 19:33:39 10° SW 19:54:34 38° S 20:06:59 14° ESE visible
10 Oct 10.0 22:03:54 10° WSW 22:21:35 36° SSW 22:24:15 34° S visible
11 Oct 10.8 00:36:56 10° WSW 00:41:30 16° WSW 00:41:30 16° WSW visible
11 Oct 10.1 20:48:54 10° WSW 21:09:15 40° S 21:16:47 27° SE visible
11 Oct 10.3 23:20:52 10° W 23:34:01 27° SW 23:34:01 27° SW visible
12 Oct 10.5 19:34:29 10° SW 19:56:19 41° S 20:09:18 15° ESE visible
12 Oct 10.1 22:05:19 10° WSW 22:23:23 36° SSW 22:26:33 33° S visible
13 Oct 10.9 00:39:24 10° WSW 00:43:48 14° WSW 00:43:48 14° WSW visible
13 Oct 10.2 20:50:08 10° WSW 21:11:01 41° S 21:19:04 27° SE visible
13 Oct 10.5 23:22:41 10° W 23:36:19 26° SW 23:36:19 26° SW visible
